星链-5782 (STARLINK-5782 )

导读

STARLINK-5782是美国SpaceX公司星链星座中的一颗低轨互联网卫星,于2023年3月24日由猎鹰9号火箭发射升空。作为星链第二代批量部署的组成部分,它运行在约550公里的近地轨道,配备先进通信技术,为全球提供高速低延迟宽带互联网接入,助力实现偏远地区覆盖,支持移动场景应用,是星链全球大规模星座组网的重要单元。

基本信息
目录编号:
56034
目录名称:
STARLINK-5782
国际标识:
2023-042BA
轨道中心:
EARTH
卫星名称:
星链-5782
卫星全名:
星链-5782 (STARLINK-5782 )
卫星状态:
在轨 (已飞行1261 天)
发射日期:
2023-03-24 UTC
国别 :
美国 (US)
星等 :
--
轨道信息
数据来源 国际轨道数据
星历时间: 2026-09-05T09:13:53+0800
8小时前
查看轨道信息
半长轴: 6861.183km
偏心率: 0.0001278
轨道倾角: 43.002°
近地点辐角 267.116°
升交点赤经 112.526°
平近点角 92.954°
近地点: 482.169km
远地点: 483.923km
周期: 94.267分钟
每日圈数: 15.275812
详细信息
固有亮度:
5
最大亮度:
2.5
卫星平台:
Starlink v1.5
覆盖范围:
全球
运营商:
太空探索技术公司
运营商所在国:
美国
制造商(研发单位):
太空探索技术公司
制造商所在国:
美国
使用方式:
暂无
卫星简介
星链(Starlink)计划是由太空探索技术公司(SpaceX)提出的一个巨型低轨卫星互联网星座项目,计划在2019年至2024年间在太空搭建由约1.2万颗卫星组成的“星链”网络,其中1584颗将部署在地球上空550千米处的近地轨道,并从2020年开始工作。该卫星仍在工作。
2D轨道图
3D轨道图
轨道高度分析图
轨道倾角分析图
轨道综合分析图
查看轨道综合分析图
交会数据列表
事件ID 空间交会对象 最接近时刻(TCA) 交会距离 交会风险概率(CRP) 交会风险指数(CRI) 操作
CDM_260907-124805-603405-674321
2026-09-07T
12:48:35+0000
0.236 km
中距离
5.159173E-4 高风险 0.89
CDM_260906-133205-603406-242522
2026-09-06T
13:32:54+0000
0.343 km
远距离
3.056758E-4 高风险 0.85
CDM_260907-011905-603406-242522
2026-09-07T
01:19:03+0000
1.069 km
极远距离
1.353277E-5 中风险 0.58
CDM_260907-150905-603405-674321
2026-09-07T
15:09:59+0000
1.523 km
极远距离
3.880866E-6 低风险 0.47
CDM_260906-150705-603406-242521
2026-09-06T
15:07:03+0000
2.222 km
极远距离
1.493892E-6 低风险 0.38
CDM_260906-115805-603406-242522
2026-09-06T
11:58:45+0000
2.392 km
极远距离
1.290737E-6 低风险 0.37
CDM_260907-025305-603406-242521
2026-09-07T
02:53:12+0000
2.552 km
极远距离
1.153127E-6 低风险 0.36